When you browse on this site, cookies collect data to enhance your experience and personalize the content and advertising you see.
Visit our Privacy Policy to learn more. By continuing to use the site, you agree to this use of cookies and data.
  • In Spain
  • List of Countries
  • For 7 days
  • Water Temperature
  • Weather Map
  • Weather Widgets
  • user-avatar
    Login

    Hourly Weather Dhamar

    Today, 15 November, Friday

    Time Temperature Precipitation Wind Pressure Humidity
    00:00 +15°C° 0 mm 2 mps 584 mmHg 45%
    01:00 +14°C° 0 mm 2 mps 584 mmHg 45%
    02:00 +14°C° 0 mm 2 mps 583 mmHg 45%
    03:00 +14°C° 0 mm 2 mps 583 mmHg 45%
    04:00 +13°C° 0 mm 2 mps 583 mmHg 46%
    05:00 +13°C° 0 mm 2 mps 583 mmHg 46%
    06:00 +12°C° 0 mm 2 mps 583 mmHg 47%
    07:00 +14°C° 0 mm 2 mps 584 mmHg 43%
    08:00 +16°C° 0 mm 2 mps 585 mmHg 38%
    09:00 +17°C° 0 mm 2 mps 586 mmHg 34%
    10:00 +19°C° 0 mm 2 mps 586 mmHg 32%
    11:00 +20°C° 0 mm 2 mps 586 mmHg 30%
    12:00 +21°C° 0 mm 2 mps 586 mmHg 29%
    13:00 +21°C° 0 mm 2 mps 585 mmHg 29%
    14:00 +22°C° 0 mm 3 mps 585 mmHg 29%
    15:00 +22°C° 0 mm 4 mps 584 mmHg 29%
    16:00 +21°C° 0 mm 3 mps 584 mmHg 36%
    17:00 +19°C° 0 mm 3 mps 584 mmHg 44%
    18:00 +18°C° 0 mm 3 mps 584 mmHg 51%
    19:00 +17°C° 0.1 mm 2 mps 584 mmHg 52%
    20:00 +17°C° 0.1 mm 2 mps 584 mmHg 54%
    21:00 +16°C° 0.1 mm 1 mps 584 mmHg 55%
    22:00 +16°C° 0 mm 1 mps 584 mmHg 53%
    23:00 +15°C° 0 mm 1 mps 583 mmHg 52%

    Tomorrow, 16 November, Saturday

    Time Temperature Precipitation Wind Pressure Humidity
    00:00 +15°C° 0 mm 1 mps 583 mmHg 50%
    01:00 +15°C° 0 mm 1 mps 583 mmHg 49%
    02:00 +14°C° 0 mm 1 mps 582 mmHg 49%
    03:00 +14°C° 0 mm 1 mps 582 mmHg 48%
    04:00 +14°C° 0 mm 1 mps 582 mmHg 48%
    05:00 +13°C° 0 mm 1 mps 582 mmHg 47%
    06:00 +13°C° 0 mm 1 mps 582 mmHg 47%
    07:00 +14°C° 0 mm 1 mps 583 mmHg 44%
    08:00 +16°C° 0 mm 1 mps 584 mmHg 40%
    09:00 +19°C° 0 mm 1 mps 584 mmHg 37%
    10:00 +20°C° 0 mm 1 mps 584 mmHg 35%
    11:00 +20°C° 0 mm 2 mps 584 mmHg 32%
    12:00 +21°C° 0 mm 2 mps 584 mmHg 30%
    13:00 +21°C° 0 mm 3 mps 584 mmHg 31%
    14:00 +21°C° 0 mm 3 mps 584 mmHg 33%
    15:00 +21°C° 0 mm 4 mps 583 mmHg 34%
    16:00 +20°C° 0.1 mm 4 mps 583 mmHg 44%
    17:00 +19°C° 0.1 mm 3 mps 583 mmHg 55%
    18:00 +17°C° 0.1 mm 3 mps 582 mmHg 65%
    19:00 +17°C° 0.3 mm 2 mps 582 mmHg 69%
    20:00 +16°C° 0.3 mm 2 mps 583 mmHg 72%
    21:00 +16°C° 0.3 mm 1 mps 583 mmHg 76%
    22:00 +16°C° 0.2 mm 1 mps 583 mmHg 74%
    23:00 +16°C° 0.2 mm 1 mps 583 mmHg 73%

    Day after tomorrow, 17 November, Sunday

    Time Temperature Precipitation Wind Pressure Humidity
    00:00 +14°C° 0.2 mm 0 mps 582 mmHg 71%
    01:00 +14°C° 0.1 mm 0 mps 582 mmHg 72%
    02:00 +14°C° 0.1 mm 0 mps 582 mmHg 73%
    03:00 +14°C° 0.1 mm 0 mps 581 mmHg 74%
    04:00 +13°C° 0 mm 0 mps 581 mmHg 74%
    05:00 +14°C° 0 mm 1 mps 582 mmHg 74%
    06:00 +14°C° 0 mm 1 mps 582 mmHg 75%
    07:00 +15°C° 0 mm 1 mps 583 mmHg 68%
    08:00 +16°C° 0 mm 1 mps 583 mmHg 61%
    09:00 +18°C° 0 mm 1 mps 584 mmHg 54%
    10:00 +20°C° 0 mm 1 mps 584 mmHg 47%
    11:00 +20°C° 0 mm 2 mps 584 mmHg 40%
    12:00 +21°C° 0 mm 2 mps 584 mmHg 33%
    13:00 +21°C° 0 mm 3 mps 584 mmHg 33%
    14:00 +21°C° 0 mm 3 mps 584 mmHg 33%
    15:00 +22°C° 0 mm 4 mps 583 mmHg 34%
    16:00 +21°C° 0 mm 4 mps 583 mmHg 40%
    17:00 +20°C° 0 mm 3 mps 583 mmHg 47%
    18:00 +18°C° 0 mm 3 mps 583 mmHg 53%
    19:00 +18°C° 0 mm 2 mps 583 mmHg 58%
    20:00 +17°C° 0 mm 2 mps 584 mmHg 62%
    21:00 +18°C° 0 mm 1 mps 584 mmHg 67%
    22:00 +16°C° 0 mm 1 mps 583 mmHg 69%
    23:00 +15°C° 0 mm 0 mps 583 mmHg 71%

    18 November, Monday

    Time Temperature Precipitation Wind Pressure Humidity
    00:00 +15°C° 0 mm 0 mps 583 mmHg 74%
    01:00 +14°C° 0 mm 0 mps 583 mmHg 74%
    02:00 +14°C° 0 mm 0 mps 582 mmHg 75%
    03:00 +14°C° 0 mm 0 mps 582 mmHg 76%
    04:00 +13°C° 0 mm 0 mps 582 mmHg 76%
    05:00 +13°C° 0 mm 0 mps 582 mmHg 76%
    06:00 +13°C° 0 mm 0 mps 582 mmHg 75%
    07:00 +14°C° 0 mm 0 mps 583 mmHg 66%
    08:00 +18°C° 0 mm 1 mps 584 mmHg 56%
    09:00 +20°C° 0 mm 1 mps 585 mmHg 46%
    10:00 +20°C° 0 mm 2 mps 585 mmHg 42%
    11:00 +21°C° 0 mm 2 mps 585 mmHg 37%
    12:00 +22°C° 0 mm 3 mps 585 mmHg 33%
    13:00 +22°C° 0 mm 4 mps 585 mmHg 35%
    14:00 +22°C° 0 mm 4 mps 585 mmHg 37%
    15:00 +22°C° 0 mm 5 mps 584 mmHg 40%
    16:00 +21°C° 0 mm 4 mps 584 mmHg 45%
    17:00 +20°C° 0 mm 3 mps 584 mmHg 51%
    18:00 +18°C° 0 mm 2 mps 584 mmHg 56%
    19:00 +18°C° 0.1 mm 2 mps 584 mmHg 59%
    20:00 +18°C° 0.1 mm 1 mps 584 mmHg 61%
    21:00 +18°C° 0.1 mm 1 mps 584 mmHg 64%
    22:00 +18°C° 0 mm 1 mps 584 mmHg 65%
    23:00 +16°C° 0 mm 1 mps 584 mmHg 66%

    19 November, Tuesday

    Time Temperature Precipitation Wind Pressure Humidity
    00:00 +16°C° 0 mm 1 mps 583 mmHg 67%
    01:00 +15°C° 0 mm 0 mps 583 mmHg 67%
    02:00 +14°C° 0 mm 0 mps 583 mmHg 68%
    03:00 +14°C° 0 mm 0 mps 582 mmHg 68%
    04:00 +14°C° 0 mm 0 mps 582 mmHg 68%
    05:00 +13°C° 0 mm 0 mps 582 mmHg 67%
    06:00 +13°C° 0 mm 0 mps 582 mmHg 67%
    07:00 +16°C° 0 mm 1 mps 583 mmHg 58%
    08:00 +19°C° 0 mm 1 mps 584 mmHg 50%
    09:00 +20°C° 0 mm 1 mps 586 mmHg 41%
    10:00 +20°C° 0 mm 2 mps 585 mmHg 39%
    11:00 +21°C° 0 mm 3 mps 585 mmHg 36%
    12:00 +22°C° 0 mm 3 mps 585 mmHg 33%
    13:00 +22°C° 0 mm 4 mps 585 mmHg 34%
    14:00 +22°C° 0 mm 4 mps 584 mmHg 35%
    15:00 +22°C° 0 mm 5 mps 584 mmHg 36%
    16:00 +21°C° 0 mm 4 mps 584 mmHg 41%
    17:00 +20°C° 0 mm 3 mps 583 mmHg 46%
    18:00 +19°C° 0 mm 3 mps 583 mmHg 51%
    19:00 +18°C° 0 mm 2 mps 583 mmHg 54%
    20:00 +19°C° 0 mm 1 mps 583 mmHg 57%
    21:00 +18°C° 0 mm 1 mps 583 mmHg 60%
    22:00 +16°C° 0 mm 0 mps 583 mmHg 63%
    23:00 +15°C° 0 mm 0 mps 583 mmHg 66%

    20 November, Wednesday

    Time Temperature Precipitation Wind Pressure Humidity
    00:00 +15°C° 0 mm 0 mps 582 mmHg 69%
    01:00 +15°C° 0 mm 0 mps 582 mmHg 70%
    02:00 +14°C° 0 mm 0 mps 581 mmHg 72%
    03:00 +14°C° 0 mm 0 mps 581 mmHg 73%
    04:00 +13°C° 0 mm 0 mps 581 mmHg 74%
    05:00 +13°C° 0 mm 0 mps 581 mmHg 74%
    06:00 +13°C° 0 mm 0 mps 581 mmHg 75%
    07:00 +14°C° 0 mm 0 mps 582 mmHg 64%
    08:00 +18°C° 0 mm 1 mps 583 mmHg 54%
    09:00 +20°C° 0 mm 1 mps 584 mmHg 43%
    10:00 +20°C° 0 mm 2 mps 584 mmHg 39%
    11:00 +21°C° 0 mm 3 mps 584 mmHg 34%
    12:00 +22°C° 0 mm 4 mps 584 mmHg 30%
    13:00 +22°C° 0 mm 4 mps 584 mmHg 32%
    14:00 +22°C° 0 mm 4 mps 584 mmHg 34%
    15:00 +22°C° 0 mm 4 mps 583 mmHg 37%
    16:00 +21°C° 0 mm 4 mps 583 mmHg 43%
    17:00 +20°C° 0 mm 3 mps 583 mmHg 49%
    18:00 +19°C° 0 mm 2 mps 582 mmHg 56%
    19:00 +18°C° 0 mm 2 mps 582 mmHg 61%
    20:00 +19°C° 0 mm 1 mps 583 mmHg 66%
    21:00 +18°C° 0 mm 1 mps 583 mmHg 70%
    22:00 +16°C° 0.3 mm 0 mps 583 mmHg 71%
    23:00 +16°C° 0.3 mm 0 mps 582 mmHg 71%
    Show more